Content
SEND FEEDBACK

Daily
Averages
Monthly
Summary
United States of America

JACKSON, TENNESSEE


Home > North America > United States > Tennessee
Elevation: 418 feet     Latitude: 35 36N     Longitude: 088 55W

WEATHER
 
SELECT A DAY
Number of Records: 208,174;   Date Range: 1/1/95 - 9/18/14
 
SHARE

PRINT THIS DATA

[ ← Previous Day ]
WEATHER ALMANAC - APRIL 27, 2014
[ Next Day → ]
[ °C ]   °F
Weather ElementAverageHighLow
Temperature67 °F71.1 °F (8:53 am)64.4 °F (4:07 pm)
Dewpoint61.8 °F64.9 °F (1:53 pm)53.1 °F (1:53 am)
Humidity83.9 %94 % (1:00 pm)57 % (1:53 am)
Barometer29.78 in29.87 in (1:00 pm)29.66 in (10:53 pm)
Wind Speed9.5 mph19.6 mph (3:53 pm)
Wind Gust32.2 mph (3:53 pm)
Weather ElementAverage
Visibility8 mi
Wind DirectionSSE (155.8 °)

Weather ElementTotal
Precipitation0.95 in
Cooling Degree Days2.8 (Base 65)
Growing Degree Days17.8 (Base 50)
Averaged from 38 records on April 27, 2014
WEATHER CONDITIONS BREAKOUT
WIND DIRECTION BREAKOUT
WEATHER BY HOUR - APRIL 27, 2014
[ °C ]   °F
Local TimeTemperatureDewpointHumidityBarometerVisibilityWind DirectionWind SpeedGust SpeedPrecipitationEventsConditions
1:53 AM69.1 °F53.1 °F57 %29.83 in10.0 miSouth (180°)6.9 mphClear
2:53 AM69.1 °F53.1 °F57 %29.82 in10.0 miSouth (180°)8.1 mphClear
4:53 AM68.0 °F55.0 °F63 %29.81 in10.0 miSouth (190°)9.2 mphClear
5:53 AM68.0 °F57.9 °F70 %29.81 in10.0 miSouth (170°)5.8 mphClear
6:53 AM66.9 °F59.0 °F76 %29.82 in10.0 miSouth (170°)5.8 mphClear
7:53 AM68.0 °F60.1 °F76 %29.81 in10.0 miVariable4.6 mphClear
8:53 AM71.1 °F62.1 °F73 %29.81 in10.0 miSSE (160°)6.9 mphClear
9:53 AM71.1 °F63.0 °F75 %29.83 in10.0 miSouth (180°)10.4 mphMostly Cloudy
10:27 AM69.8 °F62.6 °F78 %29.86 in10.0 miSouth (190°)12.7 mph18.4 mphThunderstormThunderstorm
10:37 AM69.8 °F62.6 °F78 %29.86 in10.0 miSouth (180°)8.1 mphThunderstormThunderstorm
10:46 AM69.8 °F62.6 °F78 %29.84 in10.0 miSouth (180°)11.5 mph17.3 mphOvercast
11:16 AM69.8 °F64.4 °F83 %29.85 in10.0 miSSW (200°)10.4 mph17.3 mphOvercast
11:36 AM69.8 °F64.4 °F83 %29.85 in10.0 miSSW (200°)11.5 mph18.4 mph0.00 inRain-ThunderstormLight Thunderstorms and Rain
11:53 AM68.0 °F64.0 °F87 %29.84 in10.0 miSSW (200°)15.0 mph21.9 mph0.00 inRain-ThunderstormLight Thunderstorms and Rain
12:02 PM69.8 °F64.4 °F83 %29.85 in10.0 miSSW (200°)10.4 mph0.01 inRain-ThunderstormLight Rain
12:18 PM68.0 °F64.4 °F88 %29.85 in8.0 miSouth (190°)8.1 mph0.04 inRain-ThunderstormLight Thunderstorms and Rain
12:40 PM68.0 °F64.4 °F88 %29.86 in8.0 miSSW (210°)10.4 mph0.10 inRain-ThunderstormThunderstorms and Rain
1:00 PM66.2 °F64.4 °F94 %29.87 in2.0 miWSW (240°)6.9 mph0.02 inRainRain
1:22 PM66.2 °F64.4 °F94 %29.87 in2.0 miWSW (240°)8.1 mph0.09 inRain-ThunderstormThunderstorms and Rain
1:46 PM66.2 °F64.4 °F94 %29.84 in2.0 miSE (130°)5.8 mph0.14 inRainRain
1:53 PM66.9 °F64.9 °F93 %29.84 in2.0 miSSE (150°)3.5 mph0.16 inRainRain
2:09 PM66.2 °F64.4 °F94 %29.82 in2.5 miSSE (150°)3.5 mph0.04 inRainRain
2:14 PM66.2 °F64.4 °F94 %29.82 in2.5 miSE (140°)4.6 mph0.05 inRain-ThunderstormLight Thunderstorms and Rain
3:53 PM64.9 °F62.1 °F90 %29.67 in2.5 miSSE (160°)19.6 mph32.2 mph0.12 inRain-ThunderstormLight Thunderstorms and Rain
4:07 PM64.4 °F62.6 °F94 %29.69 in4.0 miSSE (160°)18.4 mph29.9 mph0.01 inRain-ThunderstormLight Thunderstorms and Rain
4:22 PM64.4 °F62.6 °F94 %29.72 in6.0 miSSE (160°)17.3 mph26.5 mph0.02 inRain-ThunderstormLight Rain
4:53 PM64.9 °F62.1 °F90 %29.70 in8.0 miSSE (160°)15.0 mph28.8 mph0.03 inRain-ThunderstormLight Rain
4:57 PM64.4 °F62.6 °F94 %29.71 in8.0 miSouth (170°)11.5 mph27.6 mph0.00 inRain-ThunderstormLight Thunderstorms and Rain
5:53 PM64.9 °F61.0 °F87 %29.73 in8.0 miSE (140°)8.1 mph19.6 mph0.10 inRain-ThunderstormLight Thunderstorms and Rain
6:23 PM64.4 °F60.8 °F88 %29.74 in10.0 miSSE (160°)9.2 mph0.01 inOvercast
6:53 PM64.9 °F61.0 °F87 %29.73 in10.0 miVariable6.9 mph0.01 inOvercast
7:05 PM64.4 °F60.8 °F88 %29.72 in10.0 miESE (120°)8.1 mph17.3 mphThunderstormOvercast
7:20 PM64.4 °F60.8 °F88 %29.72 in10.0 miESE (120°)9.2 mph18.4 mphOvercast
7:53 PM64.9 °F61.0 °F87 %29.70 in10.0 miVariable6.9 mphMostly Cloudy
8:53 PM64.9 °F61.0 °F87 %29.67 in10.0 miSE (130°)8.1 mph20.7 mphClear
9:20 PM66.2 °F62.6 °F88 %29.70 in10.0 miSE (130°)10.4 mph18.4 mphMostly Cloudy
9:53 PM66.0 °F62.1 °F87 %29.68 in10.0 miSE (130°)11.5 mph21.9 mphMostly Cloudy
10:53 PM66.9 °F62.1 °F84 %29.66 in10.0 miSSE (150°)11.5 mph19.6 mphPartly Cloudy
Hourly data recorded from KMKL, located miles away from Jackson, Tennessee







STORIES FROM OUR PARTNERS